This demonstration page uses our WeatherBlox Daily Observations layout. Learn more.

Left ArrowRight Arrow

39.08367, -84.50855

Hourly Observations for April 17, 2019

Temp ( °F °C ) Dew Point ( °F °C ) Humidity (%) Winds ( mph kmh ) Pressure ( in mb ) Visibility ( mi km ) Precip ( " mm )
12:53 am 00:53 Clear 52 11.1 50 10 93 93 Calm 30.02 1017 10 16.0934 0 0
1:53 am 01:53 Clear 51 10.6 48 8.9 89 89 Calm 30.02 1017 10 16.0934 0 0
2:53 am 02:53 Clear 50 10 48 8.9 93 93 SSW 3 6 30.01 1016 10 16.0934 0 0
3:53 am 03:53 Clear 52 11.1 49 9.4 89 89 Calm 30.01 1016 10 16.0934 0 0
4:53 am 04:53 Clear 51 10.6 49 9.4 92 92 Calm 30.01 1016 10 16.0934 0 0
5:53 am 05:53 Clear 49 9.4 48 8.9 97 97 Calm 30.01 1016 10 16.0934 0 0
6:53 am 06:53 Clear 50 10 48 8.9 93 93 Calm 30.03 1017 10 16.0934 0 0
7:53 am 07:53 Sunny 51 10.6 49 9.4 92 92 Calm 30.05 1018 10 16.0934 0 0
8:53 am 08:53 Sunny 56 13.3 52 11.1 87 87 Calm 30.04 1017 10 16.0934 0 0
9:53 am 09:53 Sunny 63 17.2 53 11.7 70 70 SSW 5 7 30.04 1017 10 16.0934 0 0
10:53 am 10:53 Sunny 67 19.4 51 10.6 57 57 S 9 15 30.03 1017 10 16.0934 0 0
11:53 am 11:53 Sunny 69 20.6 52 11.1 55 55 S 14 22 30.01 1016 10 16.0934 0 0
12:53 pm 12:53 Sunny 71 21.7 53 11.7 53 53 SW 9 15 29.99 1016 10 16.0934 0 0
1:53 pm 13:53 Sunny 74 23.3 53 11.7 48 48 SW 10 17 29.97 1015 10 16.0934 0 0
2:53 pm 14:53 Sunny 74 23.3 51 10.6 45 45 SSW 12 19 29.95 1014 10 16.0934 0 0
3:53 pm 15:53 Sunny 74 23.3 51 10.6 45 45 SSW 16 26 29.9 1013 10 16.0934 0 0
4:53 pm 16:53 Sunny 75 23.9 53 11.7 46 46 S 9 15 29.85 1011 10 16.0934 0 0
5:53 pm 17:53 Sunny 73 22.8 52 11.1 48 48 S 14 22 29.86 1011 10 16.0934 0 0
6:53 pm 18:53 Sunny 74 23.3 53 11.7 48 48 S 13 20 29.85 1011 10 16.0934 0 0
7:53 pm 19:53 Sunny 70 21.1 52 11.1 53 53 S 10 17 29.83 1010 10 16.0934 0 0
8:53 pm 20:53 Cloudy 70 21.1 52 11.1 53 53 S 10 17 29.84 1010 10 16.0934 0 0
9:53 pm 21:53 Mostly Cloudy 66 18.9 51 10.6 59 59 S 6 9 29.83 1010 10 16.0934 0 0
10:53 pm 22:53 Clear 63 17.2 51 10.6 65 65 S 5 7 29.81 1010 10 16.0934 0 0
11:53 pm 23:53 Cloudy 60 15.6 53 11.7 78 78 SSW 7 11 29.82 1010 10 16.0934 0 0

Powered by AerisWeather